Zurück zum Katalog

STARLINK-31322

AktivKommunikationVLEO
NORAD 59168·PAYLOAD·🇺🇸 United States

Gestartet Mar 4, 2024 von Cape Canaveral Space Force Station

Loading…

Nächste Überflüge (nächste 24 Stunden)

TLE

AktuellSource: CelesTrak SupGP

Epoche: Sep 14, 2026, 13:44 UTC

1 59168C 24044S   26257.57270833  .00032489  00000+0  11769-2 0  2578
2 59168  43.0015 120.6358 0001333 262.5869 291.5296 15.27559065    17

Verfolge STARLINK-31322 in Echtzeit mit AllMySat

Download on the App Store